{"data":{"norad_id":65884,"intl_designator":"2025-224C","name":"STARLINK-35384","alt_names":[],"object_type":"PAYLOAD","status":"ACTIVE","operator":null,"country":"US","launch_date":"2025-10-07","launch_site_code":"AFETR","launch_vehicle":null,"mission":null,"orbit_class":"UNKNOWN","rcs_meters":null,"size_class":null,"mass_kg":null,"dimensions":null,"purposes":["comms"],"wikipedia_slug":null,"has_3d_model":false,"image_url":null,"decayed_at":null,"tle_current":{"epoch":"2026-09-20T06:35:43.999584Z","epoch_age_seconds":125662,"freshness":"FRESH","line1":"1 65884U 25224C   26263.27481481  .00022331  00000+0  66970-3 0  9991","line2":"2 65884  53.1593 186.9970 0001883  90.4675 269.6543 15.34418576 54626","mean_motion":15.34418576,"eccentricity":0.0001883,"inclination_deg":53.1593,"raan_deg":186.997,"arg_perigee_deg":90.4675,"mean_anomaly_deg":269.6543,"bstar":0.0006697,"rev_number":5462,"period_min":93.84662194027,"perigee_km":461.35990915644,"apogee_km":463.93614879835,"semimajor_km":6840.7850289774,"source":"CELESTRAK","updated_at":"2026-09-21T09:00:35.755057Z"}}}